Current Version              Previous Version:    01  02  03  04  05  06  07  08  09  10  11  12  13  14  15  16  17  18  19  20  21  22  23  24  25  26  27  28  29  30  
   31  32  33  34  35  36  37  38  39  40  41  42  43  44  45  46  47  48  49  50  51  52  53  54  55  56  57  58  59  60  

[Printable]
635
ASUS44 KFWD 170610
RWRTX
NORTH TEXAS HOURLY WEATHER ROUNDUP
NATIONAL WEATHER SERVICE FORT WORTH TX
100 AM CDT WED SEP 17 2014

NOTE: "FAIR" INDICATES FEW OR NO CLOUDS BELOW 12,000 FEET WITH NO
SIGNIFICANT WEATHER AND/OR OBSTRUCTIONS TO VISIBILITY.

TXZ118-119-170700-
DALLAS/FORT WORTH METROPLEX

CITY           SKY/WX    TMP DP  RH WIND       PRES   REMARKS
DFW AIRPORT    MOCLDY    80  69  69 S6        29.99F
6HR MIN TEMP:  80; 6HR MAX TEMP:  89;

DALLAS LOVE    MOCLDY    81  70  69 SE8       30.00F
6HR MIN TEMP:  80; 6HR MAX TEMP:  89;

FTW MEACHAM    PTCLDY    81  70  69 SE10      29.99F
6HR MIN TEMP:  81; 6HR MAX TEMP:  88;

DAL-EXECUTIVE  PTCLDY    80  70  71 S6        30.00F
6HR MIN TEMP:  80; 6HR MAX TEMP:  89;

FTW-ALLIANCE   MOCLDY    78  69  73 S3        29.99F
6HR MIN TEMP:  78; 6HR MAX TEMP:  88;

FTW-NAS-JRB    CLEAR     84  69  60 S8        30.04F
6HR MIN TEMP:  84; 6HR MAX TEMP:  91;

FTW-SPINKS     CLEAR     78  70  76 S5        30.02S
6HR MIN TEMP:  78; 6HR MAX TEMP:  87;

ARLINGTON      PTCLDY    79  70  74 S6        30.00F
6HR MIN TEMP:  79; 6HR MAX TEMP:  87;

GRAND PRAIRIE  PTCLDY    80  69  69 S5        30.02S
6HR MIN TEMP:  80; 6HR MAX TEMP:  88;

ADDISON        PTCLDY    81  68  64 SE3       30.02S
6HR MIN TEMP:  81; 6HR MAX TEMP:  88;

MESQUITE       PTCLDY    77  69  76 SE5       30.00F
6HR MIN TEMP:  76; 6HR MAX TEMP:  88;

LANCASTER      MOCLDY    74  67  78 CALM      30.01F
6HR MIN TEMP:  74; 6HR MAX TEMP:  87;

$$

TXZ091>094-102>105-117-120-121-131>134-170700-
NORTH CENTRAL TEXAS

CITY           SKY/WX    TMP DP  RH WIND       PRES   REMARKS
SHRMAN/DENISON CLOUDY    78  69  73 SE8       30.02F
6HR MIN TEMP:  78; 6HR MAX TEMP:  85;

GAINESVILLE    MOCLDY    74  69  85 SE3       30.04S
6HR MIN TEMP:  74; 6HR MAX TEMP:  84;

BOWIE          PTCLDY    73  69  86 SE3       30.02F
6HR MIN TEMP:  73; 6HR MAX TEMP:  83;

BRIDGEPORT     MOCLDY    77  66  68 S5        30.03F
6HR MIN TEMP:  76; 6HR MAX TEMP:  85;

DECATUR        PTCLDY    75  65  72 SE3       30.02F
6HR MIN TEMP:  74; 6HR MAX TEMP:  84;

DENTON         CLEAR     77  68  73 E5        30.00F
6HR MIN TEMP:  76; 6HR MAX TEMP:  87;

MCKINNEY       PTCLDY    77  70  79 CALM      30.00F
6HR MIN TEMP:  76; 6HR MAX TEMP:  87;

GREENVILLE     PTCLDY    72  68  88 CALM      30.00F
ROCKWALL       PTCLDY    77  69  77 SE6       29.99F
6HR MIN TEMP:  77; 6HR MAX TEMP:  86;

TERRELL        PTCLDY    78  72  81 S5        30.00F
6HR MIN TEMP:  77; 6HR MAX TEMP:  88;

WAXAHACHIE     PTCLDY    76  69  76 S3        30.02F
6HR MIN TEMP:  76; 6HR MAX TEMP:  86;

CLEBURNE       PTCLDY    77  73  88 S3        30.02F
GRANBURY       PTCLDY    81  70  69 SE5       30.02S
6HR MIN TEMP:  81; 6HR MAX TEMP:  88;

$$

TXZ083>090-098>101-113>116-127>130-139>142-154-155-170700-
WESTERN NORTH TEXAS

CITY           SKY/WX    TMP DP  RH WIND       PRES   REMARKS
WICHITA FALLS  CLOUDY    75  68  78 SE7       30.00F
6HR MIN TEMP:  75; 6HR MAX TEMP:  85;

VERNON         CLOUDY    77  67  72 S7        30.03S
6HR MIN TEMP:  70; 6HR MAX TEMP:  89;

ABILENE        CLOUDY    78  66  66 SE5       30.06F
6HR MIN TEMP:  77; 6HR MAX TEMP:  86; 6HR PCP: TRACE;

ABILENE-DYESS  CLOUDY    76  68  74 CALM      30.05F
6HR MIN TEMP:  76; 6HR MAX TEMP:  85; 6HR PCP: TRACE;

BRECKENRIDGE   CLOUDY    81  67  62 S7        30.02F
6HR MIN TEMP:  81; 6HR MAX TEMP:  87;

GRAHAM         MOCLDY    78  66  66 SE3       30.00F
6HR MIN TEMP:  78; 6HR MAX TEMP:  87;

MINERAL WELLS  PTCLDY    76  68  76 SE6       30.00F
6HR MIN TEMP:  76; 6HR MAX TEMP:  88;

STEPHENVILLE   MOCLDY    77  69  75 S3        30.06S
6HR MIN TEMP:  77; 6HR MAX TEMP:  85;

COMANCHE         N/A     77  69  75 S9        30.04S
6HR MIN TEMP:  77; 6HR MAX TEMP:  87;

BROWNWOOD      CLOUDY    77  68  73 SE6       30.03F
BRADY            N/A     73  72  94 SE5       30.04F
$$

TXZ143>147-156>162-174-175-170700-
CENTRAL TEXAS

CITY           SKY/WX    TMP DP  RH WIND       PRES   REMARKS
WACO           PTCLDY    75  71  87 SW6       30.00F
6HR MIN TEMP:  74; 6HR MAX TEMP:  86;

WACO-MCGREGOR  PTCLDY    73  66  78 CALM      30.01F
6HR MIN TEMP:  73; 6HR MAX TEMP:  82;

HILLSBORO      MOCLDY    77  71  82 S3        30.01S
6HR MIN TEMP:  77; 6HR MAX TEMP:  86;

CORSICANA      MOCLDY    76  70  82 SE3       30.01F
6HR MIN TEMP:  76; 6HR MAX TEMP:  87;

MEXIA          PTCLDY    73  71  93 CALM      29.99F
6HR MIN TEMP:  73; 6HR MAX TEMP:  85;

HEARNE           N/A     75  74  97 CALM      30.00F
6HR MIN TEMP:  75; 6HR MAX TEMP:  82; 6HR PCP:  0.03;

CAMERON        MOCLDY    74  74  97 CALM      29.99F
6HR MIN TEMP:  74; 6HR MAX TEMP:  83; 6HR PCP:  0.68;

TEMPLE         PTCLDY    73  66  78 CALM      30.00F
6HR MIN TEMP:  73; 6HR MAX TEMP:  84;

KILLEEN        PTCLDY    75  70  83 CALM      30.01F
KILLEEN-SKYLRK PTCLDY    72  66  83 CALM      30.01F
6HR MIN TEMP:  72; 6HR MAX TEMP:  79;

FORT HOOD      PTCLDY    75  72  90 CALM      30.01F
6HR MIN TEMP:  75; 6HR MAX TEMP:  84;

GATESVILLE     MOCLDY    73  72  94 CALM      30.03F
HAMILTON       MOCLDY    76  69  80 S12       30.03F
6HR MIN TEMP:  76; 6HR MAX TEMP:  86;

LAMPASAS       MOCLDY    75  72  91 CALM      30.02F
6HR MIN TEMP:  75; 6HR MAX TEMP:  84;

$$

TXZ095>097-106>112-122>126-135>138-148>153-164>167-170700-
EAST TEXAS

CITY           SKY/WX    TMP DP  RH WIND       PRES   REMARKS
PARIS          MOCLDY    73  64  73 SE3       30.03S
6HR MIN TEMP:  73; 6HR MAX TEMP:  82;

SULPHUR SPRNGS MOCLDY    76  70  80 CALM      30.02F
6HR MIN TEMP:  76; 6HR MAX TEMP:  86;

MOUNT PLEASANT CLOUDY    73  71  93 CALM      30.02F
6HR MIN TEMP:  73; 6HR MAX TEMP:  82;

GILMER         MOCLDY    75  72  88 CALM      30.02F
MINEOLA        MOCLDY    73  73 100 CALM      30.01F FOG
TYLER          MOCLDY    76  71  85 S5        30.00F
6HR MIN TEMP:  76; 6HR MAX TEMP:  87;

LONGVIEW       MOCLDY    76  70  82 CALM      30.00F
6HR MIN TEMP:  75; 6HR MAX TEMP:  87;

MARSHALL       MOCLDY    75  71  88 CALM      30.02F
6HR MIN TEMP:  75; 6HR MAX TEMP:  89;

ATHENS         MOCLDY    73  70  88 CALM      30.00F
PALESTINE      MOCLDY    75  72  91 CALM      30.01F
JACKSONVILLE   MOCLDY    74  71  90 S3        30.03F
HENDERSON      MOCLDY    73  71  95 CALM      30.01F
6HR MIN TEMP:  73; 6HR MAX TEMP:  85;

NACOGDOCHES    MOCLDY    72  70  94 CALM      30.01F
6HR MIN TEMP:  72; 6HR MAX TEMP:  84;

LUFKIN         FOG       76  73  91 SE3       30.00F VSB 1/4
6HR MIN TEMP:  76; 6HR MAX TEMP:  78; 6HR PCP:  0.39;

$$

SUPPLEMENTAL OBSERVATIONS (CENTRAL)

CITY           SKY/WX    TMP DP  RH WIND       PRES   REMARKS
CADDO GRASSLND   N/A     72  68  88 S1          N/A
PAT MAYSE LAKE   N/A     75  70  83 SE3         N/A
GREENVILLE       N/A     75  70  83 CALM        N/A
CEDAR HILL       N/A     79  70  73 S5          N/A
PALESTINE        N/A     73  70  88 E1          N/A
MCGREGOR         N/A     72  66  83 W5          N/A
TEMPLE           N/A     73  68  83 E1          N/A
$$

SUPPLEMENTAL OBSERVATIONS (WEST)

CITY           SKY/WX    TMP DP  RH WIND       PRES   REMARKS
POSSUM KINGDOM   N/A     81  68  65 SE5         N/A